STARLINK-32848, 62808

Orbit data source: Space-Track

STARLINK-32848, 62808 is a payload satellite owned by SpaceX/Seattle (US) in LEO that was launched on Fri, 24 Jan 2025 UTC via an FALCON 9 launch vehicle from the Air Force Western Test Range (AFWTR). Payload-class satellites include a variety of spacecraft equipped with specific instruments for various scientific and technological missions. These include communications satellites like Starlink; space stations such as the ISS; scientific satellites like the Hubble; Earth observation satellites from companies like Planet Labs, Umbra, and HawkEye 360; GPS; miniature CubeSats for education and research; and military/defense satellites.

Loading next visibility...
Identifier
62808, 2025-018C
Orbit
LEO
Country
Flag of USUS
Related business
Manufacturer
SpaceX/Seattle
Mission
Operational Commercial Communications
Bus & Motor
STARLINK V2M, Unknown motor
Mass
730 kg wet, ~700 kg dry
Launch date (UTC)
2025-01-24 (1 year ago)
Launch vehicle
FALCON 9
Launch site
Air Force Western Test Range (AFWTR)
Object type
Payload
Rocket body
Debris
Shape & HBR
Box + 2 Pan, 17.7 m
Radar Cross Section
33.884 m², Large (>1 m²)

Expand to show TLE details & history
Last TLE update: 14 hours ago

TLE from 14 hours ago
0 STARLINK-32848
1 62808U 25018C   26125.79829452  .00067622  00000-0  21685-2 0  9999
2 62808  53.1597  44.2148 0001924  76.3279 283.7937 15.31738963 71912
Epoch: 2026-05-05T19:09Z
TLE epoch observation values (Epoch: 2026-05-05T19:09:32.646Z)
Latitude
0.00001°
Longitude
-106.83919°
Altitude
471.21 km
Speed
7.632 km/s
True Right ascension
02h 56m 51s
True Declination
0° 00' 00"
Sunlit
Object was in daylight at epoch
Visualization orbit readout
Latitude
Unknown
Longitude
Unknown
Altitude
Unknown
Speed
Unknown
Apparent Right ascension
Unknown
Apparent Declination
Unknown
Sunlit
N/A
Visualization observer readout
Local Sidereal Time
17:31:32
Azimuth
Unknown
Elevation
Unknown
Doppler factor
Unknown
Orbital elements
Apogee altitude
472.198 km
Perigee altitude
469.563 km
Semi-major axis
6,849.017 km
Eccentricity
0.00019
Inclination
53.1597°
RAAN
44.2148°
Arg. of periapsis
76.3279°
True anomaly
283.77229°
Mean anomaly
283.7937°
Eccentric anomaly
283.78299°
Mean motion
3.82914 °/min
Orbital period
94.02 mins
BSTAR
0.0021685
Loading maneuver chart data...
Computing Atmospheric mass density...
Loading historical data...
Loading historical data...
Loading historical data...
Loading historical data...
Loading historical data...
Loading historical data...
Loading historical data...

Documentation

Showing up to 5 results
|